Location: Cambridge
(43.3830°N, 80.3170°W)
Time: 06:05:30
(UTC-04:00)

ISS - Visible Passes

Search period start: 19 March 2019 00:00
Search period end: 29 March 2019 00:00
Orbit: 406 x 411 km, 51.6° (Epoch: 19 March)

Date Brightness Start Highest point End Pass type
(mag) Time Alt. Az. Time Alt. Az. Time Alt. Az.
20 Mar -2.3 20:53:12 10° SSW 20:55:12 22° SSE 20:55:12 22° SSE visible
21 Mar -1.8 20:03:17 10° SSE 20:05:05 14° SE 20:06:53 10° E visible
21 Mar -2.5 21:37:58 10° WSW 21:40:02 36° WSW 21:40:02 36° WSW visible
22 Mar -3.8 20:46:58 10° SW 20:50:13 59° SE 20:51:50 26° ENE visible
22 Mar -0.6 22:24:03 10° W 22:24:37 14° WNW 22:24:37 14° WNW visible
23 Mar -2.6 21:32:38 10° W 21:35:46 39° NNW 21:36:12 37° N visible
24 Mar -3.3 20:41:21 10° WSW 20:44:37 60° NNW 20:47:36 12° NE visible
24 Mar -0.9 22:19:02 10° WNW 22:20:21 17° NW 22:20:21 17° NW visible
25 Mar -1.8 21:27:33 10° WNW 21:30:21 25° NNW 21:31:36 20° NNE visible
26 Mar -2.2 20:36:04 10° W 20:39:06 33° NNW 20:42:08 10° NE visible
26 Mar -1.0 22:13:54 10° NW 22:15:28 17° NNW 22:15:28 17° NNW visible
27 Mar -1.5 21:22:28 10° WNW 21:25:00 20° N 21:26:31 15° NNE visible
28 Mar -1.7 20:30:57 10° WNW 20:33:39 23° NNW 20:36:22 10° NE visible
28 Mar -1.3 22:08:27 10° NW 22:10:12 19° NNW 22:10:12 19° NNW visible
